This demonstration page uses our WeatherBlox Daily Observations layout. Learn more.

41.86663, -103.66717

Hourly Observations for January 13, 2020

Temp ( °F °C ) Dew Point ( °F °C ) Humidity (%) Winds ( mph kmh ) Pressure ( in mb ) Visibility ( mi km ) Precip ( " mm )
12:53 am 00:53 Clear 30 -1.1 16 -8.9 56 56 W 13 20 29.87 1011 10 16.0934 0 0
1:53 am 01:53 Clear 27 -2.8 13 -10.6 55 55 WNW 6 9 29.9 1013 10 16.0934 0 0
2:53 am 02:53 Clear 24 -4.4 14 -10 65 65 NNW 5 7 29.91 1013 10 16.0934 0 0
3:53 am 03:53 Clear 18 -7.8 12 -11.1 77 77 Calm 29.93 1014 10 16.0934 0 0
4:53 am 04:53 Clear 17 -8.3 12 -11.1 80 80 N 6 9 29.92 1013 10 16.0934 0 0
5:53 am 05:53 Clear 18 -7.8 12 -11.1 77 77 SSE 3 6 29.92 1013 10 16.0934 0 0
6:53 am 06:53 Clear 17 -8.3 13 -10.6 84 84 SE 3 6 29.91 1013 10 16.0934 0 0
7:53 am 07:53 Sunny 20 -6.7 15 -9.4 81 81 E 8 13 29.89 1012 10 16.0934 0 0
8:53 am 08:53 Cloudy 25 -3.9 17 -8.3 72 72 E 6 9 29.89 1012 10 16.0934 0 0
9:53 am 09:53 Sunny 30 -1.1 18 -7.8 61 61 Calm 29.86 1011 10 16.0934 0 0
10:53 am 10:53 Sunny 37 2.8 18 -7.8 46 46 E 5 7 29.85 1011 10 16.0934 0 0
11:53 am 11:53 Mostly Sunny 46 7.8 13 -10.6 26 26 SSW 9 15 29.8 1009 10 16.0934 0 0
12:53 pm 12:53 Partly Cloudy 47 8.3 15 -9.4 28 28 W 18 30 29.75 1008 10 16.0934 0 0
1:53 pm 13:53 Partly Cloudy 46 7.8 15 -9.4 29 29 WSW 17 28 29.77 1008 10 16.0934 0 0
2:53 pm 14:53 Partly Cloudy 47 8.3 15 -9.4 28 28 W 26 43 29.78 1009 10 16.0934 0 0
3:53 pm 15:53 Sunny 42 5.6 15 -9.4 33 33 W 23 37 29.86 1011 10 16.0934 0 0
4:53 pm 16:53 Clear 38 3.3 15 -9.4 39 39 W 18 30 29.91 1013 10 16.0934 0 0
5:53 pm 17:53 Clear 37 2.8 15 -9.4 41 41 W 17 28 29.94 1014 10 16.0934 0 0
6:53 pm 18:53 Clear 36 2.2 15 -9.4 42 42 W 15 24 29.98 1015 10 16.0934 0 0
7:53 pm 19:53 Clear 33 0.6 15 -9.4 47 47 WNW 14 22 29.99 1016 10 16.0934 0 0
8:53 pm 20:53 Clear 28 -2.2 15 -9.4 58 58 NNW 6 9 30 1016 10 16.0934 0 0
9:53 pm 21:53 Clear 25 -3.9 14 -10 63 63 NW 3 6 30.01 1016 10 16.0934 0 0
10:53 pm 22:53 Clear 24 -4.4 13 -10.6 62 62 NW 6 9 30.01 1016 10 16.0934 0 0
11:53 pm 23:53 Clear 19 -7.2 12 -11.1 74 74 N 7 11 30 1016 10 16.0934 0 0

Powered by AerisWeather